time_stamp(utc),avg(mph),gust(mph),direction(deg),12m_air_temp(f),sonic_u(cm/s),sonic_v(cm/s),sonic_w(cm/s),pressure,2m_air_temp(f),pyranometer(W/m^2)
"2018-08-27 00:02:07+00",11.3,14.3,,76.9,-407,-438,-33,1018.57,76.7,0
"2018-08-27 00:07:07+00",15.2,17.2,,77,-427,-542,-3,1018.54,76.8,0
"2018-08-27 00:12:07+00",14.5,17.5,,77,-413,-508,-11,1018.55,76.8,0
"2018-08-27 00:17:07+00",15.3,16.3,,77,-364,-579,-8,1018.49,76.8,0
"2018-08-27 00:22:07+00",12.9,15.9,,76.9,-348,-466,5,1018.5,76.9,0
"2018-08-27 00:27:07+00",11.2,13.2,,76.9,-255,-429,9,1018.51,76.8,0
"2018-08-27 00:32:07+00",13.4,14.4,,77,-340,-508,14,1018.57,76.9,0
"2018-08-27 00:37:07+00",11.2,12.2,,77,-297,-416,20,1018.6,76.9,0
"2018-08-27 00:42:07+00",14.4,17.4,,77,-374,-539,8,1018.49,76.9,0
"2018-08-27 00:47:07+00",12.1,14.1,,77.1,-354,-426,16,1018.63,77,0
"2018-08-27 00:52:07+00",11.3,13.3,,77.1,-360,-350,9,1018.71,77,0
"2018-08-27 00:57:07+00",13.7,15.7,,77.2,-440,-414,3,1018.73,77,0
"2018-08-27 01:02:07+00",13.0,14.0,,77.2,-402,-431,19,1018.59,77.1,0
"2018-08-27 01:07:07+00",11.8,13.8,,77.2,-335,-416,8,1018.61,77,0
"2018-08-27 01:12:07+00",12.3,14.3,,77.2,-311,-461,11,1018.57,77.1,0
"2018-08-27 01:17:07+00",11.5,14.5,,77.2,-289,-436,23,1018.64,77.1,0
"2018-08-27 01:22:07+00",12.8,14.8,,77.3,-303,-481,-2,1018.64,77.1,0
"2018-08-27 01:27:07+00",10.2,12.2,,77.3,-221,-394,15,1018.49,77.1,0
"2018-08-27 01:32:07+00",12.1,14.1,,77.3,-275,-458,-4,1018.47,77,0
"2018-08-27 01:37:07+00",10.8,13.8,,77.3,-258,-411,14,1018.4,76.9,0
"2018-08-27 01:42:07+00",12.7,14.7,,77.4,-280,-483,-8,1018.39,76.9,0
"2018-08-27 01:47:07+00",12.9,14.9,,77.4,-277,-492,0,1018.33,76.9,0
"2018-08-27 01:52:07+00",12.9,15.9,,77.5,-307,-483,5,1018.34,76.9,0
"2018-08-27 01:57:07+00",11.7,14.7,,77.6,-272,-444,5,1018.43,77,0
"2018-08-27 02:02:07+00",11.4,12.4,,77.6,-332,-396,11,1018.44,77,0
"2018-08-27 02:07:07+00",11.2,13.2,,77.5,-358,-347,-2,1018.52,76.9,0
"2018-08-27 02:12:07+00",13.4,15.4,,77.5,-450,-367,11,1018.59,76.9,0
"2018-08-27 02:17:07+00",11.7,13.7,,77.5,-377,-352,16,1018.6,77,0
"2018-08-27 02:22:07+00",11.1,13.1,,77.5,-386,-291,11,1018.67,77,0
"2018-08-27 02:27:07+00",10.6,12.6,,77.5,-348,-302,12,1018.65,77,0
"2018-08-27 02:32:07+00",10.7,12.7,,77.5,-349,-325,10,1018.57,76.9,0
"2018-08-27 02:37:07+00",10.2,11.2,,77.4,-319,-327,6,1018.43,76.9,0
"2018-08-27 02:42:07+00",9.2,10.2,,77.3,-292,-280,7,1018.54,76.8,0
"2018-08-27 02:47:07+00",9.0,10.0,,77.2,-310,-235,7,1018.63,76.7,0
"2018-08-27 02:52:07+00",9.1,11.1,,77.2,-303,-246,7,1018.66,76.6,0
"2018-08-27 02:57:07+00",9.1,11.1,,77.2,-309,-256,16,1018.6,76.5,0
"2018-08-27 03:02:07+00",11.0,13.0,,77.2,-379,-299,22,1018.48,76.5,0
"2018-08-27 03:07:07+00",11.2,12.2,,77.3,-422,-283,-20,1018.64,76.5,0
"2018-08-27 03:12:07+00",9.1,11.1,,77.2,-345,-235,-46,1018.74,76.5,0
"2018-08-27 03:17:07+00",9.1,10.1,,77.1,-327,-236,-51,1018.64,76.5,0
"2018-08-27 03:22:07+00",10.3,12.3,,77.1,-319,-278,-63,1018.68,76.4,0
"2018-08-27 03:27:07+00",8.0,9.0,,77,-286,-212,-38,1018.66,76.4,0
"2018-08-27 03:32:07+00",8.1,10.1,,76.9,-280,-216,-49,1018.64,76.3,0
"2018-08-27 03:37:07+00",7.7,8.7,,76.8,-262,-203,-51,1018.63,76.3,0
"2018-08-27 03:42:07+00",7.2,8.2,,76.7,-263,-179,-33,1018.61,76.2,0
"2018-08-27 03:47:07+00",7.7,8.7,,76.6,-285,-193,-40,1018.65,76.1,0
"2018-08-27 03:52:07+00",7.2,8.2,,76.6,-296,-173,-33,1018.76,76,0
"2018-08-27 03:57:07+00",8.9,9.9,,76.6,-369,-158,-43,1019.05,75.9,0
"2018-08-27 04:02:07+00",5.3,5.3,,76.6,-222,-35,-21,1019.2,75.9,0
"2018-08-27 04:07:07+00",6.0,7.0,,76.4,-242,-101,-25,1019.19,75.8,0
"2018-08-27 04:12:07+00",6.1,7.1,,76.5,-262,-136,-34,1019.12,75.6,0
"2018-08-27 04:17:07+00",6.1,6.1,,76.5,-264,-154,-36,1019.11,75.5,0
"2018-08-27 04:22:07+00",6.4,8.4,,76.5,-260,-158,-37,1019.09,75.4,0
"2018-08-27 04:27:07+00",7.8,8.8,,76.6,-302,-205,-57,1018.88,75.5,0
"2018-08-27 04:32:07+00",9.0,10.0,,76.6,-294,-235,-54,1018.72,75.5,0
"2018-08-27 04:37:07+00",8.5,9.5,,76.6,-268,-229,-58,1018.61,75.6,0
"2018-08-27 04:42:07+00",9.9,10.9,,76.7,-351,-243,-41,1018.54,75.6,0
"2018-08-27 04:47:07+00",8.5,10.5,,76.6,-305,-213,11,1018.56,75.7,0
"2018-08-27 04:52:07+00",11.0,13.0,,76.7,-385,-282,18,1018.54,75.6,0
"2018-08-27 04:57:07+00",11.0,13.0,,76.7,-372,-301,8,1018.57,75.7,0
"2018-08-27 05:02:07+00",10.7,13.7,,76.7,-361,-299,18,1018.53,75.8,0
"2018-08-27 05:07:07+00",10.5,12.5,,76.6,-359,-289,10,1018.52,75.8,0
"2018-08-27 05:12:07+00",10.7,11.7,,76.5,-362,-305,13,1018.55,75.8,0
"2018-08-27 05:17:07+00",12.1,15.1,,76.5,-423,-321,9,1018.5,75.8,0
"2018-08-27 05:22:07+00",12.9,14.9,,76.4,-496,-304,18,1018.53,75.7,0
"2018-08-27 05:27:07+00",12.5,14.5,,76.5,-492,-291,12,1018.54,75.8,0
"2018-08-27 05:32:07+00",12.5,15.5,,76.5,-511,-275,8,1018.49,75.8,0
"2018-08-27 05:37:07+00",13.1,15.1,,76.5,-521,-293,15,1018.38,75.8,0
"2018-08-27 05:42:07+00",10.7,11.7,,76.4,-408,-260,24,1018.32,75.8,0
"2018-08-27 05:47:07+00",11.7,13.7,,76.3,-435,-290,19,1018.34,75.8,0
"2018-08-27 05:52:07+00",9.6,11.6,,76.2,-336,-248,19,1018.35,75.7,0
"2018-08-27 05:57:07+00",10.5,13.5,,76.1,-393,-257,-17,1018.2,75.6,0
"2018-08-27 06:02:07+00",10.7,11.7,,76.2,-407,-232,-68,1018.2,75.5,0
"2018-08-27 06:07:07+00",10.1,11.1,,76.2,-382,-224,-49,1018.09,75.5,0
"2018-08-27 06:12:07+00",11.1,12.1,,76.1,-409,-260,-41,1018,75.5,0
"2018-08-27 06:17:07+00",10.4,12.4,,76,-411,-222,-26,1017.9,75.4,0
"2018-08-27 06:22:07+00",11.2,13.2,,76,-462,-220,-41,1017.92,75.4,0
"2018-08-27 06:27:07+00",10.9,11.9,,76,-455,-199,-41,1017.88,75.4,0
"2018-08-27 06:32:07+00",11.6,12.6,,76,-480,-222,-55,1017.88,75.3,0
"2018-08-27 06:37:07+00",10.3,11.3,,75.9,-445,-183,-20,1017.86,75.3,0
"2018-08-27 06:42:07+00",11.4,14.4,,75.9,-485,-224,-36,1017.76,75.3,0
"2018-08-27 06:47:07+00",11.1,13.1,,75.8,-471,-197,-54,1017.79,75.2,0
"2018-08-27 06:52:07+00",11.5,13.5,,75.7,-494,-214,-40,1017.76,75.2,0
"2018-08-27 06:57:07+00",10.7,11.7,,75.7,-457,-188,-33,1017.8,75.1,0
"2018-08-27 07:02:07+00",9.5,11.5,,75.5,-390,-160,-48,1017.78,75.1,0
"2018-08-27 07:07:07+00",10.5,12.5,,75.5,-412,-185,-65,1017.7,75,0
"2018-08-27 07:12:07+00",9.7,10.7,,75.4,-370,-176,-55,1017.72,74.9,0
"2018-08-27 07:17:07+00",9.8,10.8,,75.4,-392,-155,-59,1017.71,74.9,0
"2018-08-27 07:22:07+00",10.0,13.0,,75.4,-407,-178,-48,1017.69,74.9,0
"2018-08-27 07:27:07+00",10.7,12.7,,75.4,-447,-179,-59,1017.62,74.9,0
"2018-08-27 07:32:07+00",10.7,12.7,,75.5,-445,-219,-27,1017.63,74.9,0
"2018-08-27 07:37:07+00",9.7,11.7,,75.4,-364,-196,-40,1017.56,74.9,0
"2018-08-27 07:42:07+00",12.3,14.3,,75.3,-449,-274,-42,1017.5,74.8,0
"2018-08-27 07:47:07+00",12.5,14.5,,75.4,-495,-277,-18,1017.52,74.8,0
"2018-08-27 07:52:07+00",12.7,13.7,,75.4,-499,-280,-29,1017.47,74.8,0
"2018-08-27 07:57:07+00",13.1,16.1,,75.4,-528,-280,-24,1017.45,74.8,0
"2018-08-27 08:02:07+00",13.1,16.1,,75.3,-516,-285,-38,1017.46,74.8,0
"2018-08-27 08:07:07+00",10.6,11.6,,75.2,-431,-214,-34,1017.51,74.8,0
"2018-08-27 08:12:07+00",10.4,11.4,,75.2,-449,-210,-23,1017.59,74.8,0
"2018-08-27 08:17:07+00",11.0,13.0,,75.1,-482,-195,-42,1017.63,74.7,0
"2018-08-27 08:22:07+00",11.1,13.1,,75.1,-443,-213,-59,1017.62,74.7,0
"2018-08-27 08:27:07+00",9.5,11.5,,75.1,-420,-178,-32,1017.7,74.6,0
"2018-08-27 08:32:07+00",9.9,11.9,,75,-392,-182,-56,1017.65,74.6,0
"2018-08-27 08:37:07+00",9.5,10.5,,74.9,-383,-204,-21,1017.68,74.5,0
"2018-08-27 08:42:07+00",11.4,13.4,,74.9,-459,-250,-39,1017.68,74.5,0
"2018-08-27 08:47:07+00",12.1,14.1,,74.9,-469,-241,-56,1017.64,74.4,0
"2018-08-27 08:52:07+00",12.2,14.2,,74.9,-484,-242,-71,1017.65,74.5,0
"2018-08-27 08:57:07+00",11.5,13.5,,74.9,-489,-196,-47,1017.68,74.4,0
"2018-08-27 09:02:07+00",11.1,14.1,,75,-484,-153,-43,1017.69,74.4,0
"2018-08-27 09:07:07+00",10.0,12.0,,74.9,-428,-133,-46,1017.77,74.5,0
"2018-08-27 09:12:07+00",8.9,10.9,,74.9,-388,-82,-18,1017.81,74.4,0
"2018-08-27 09:17:07+00",7.7,8.7,,74.7,-325,-47,25,1017.8,74.4,0
"2018-08-27 09:22:07+00",7.5,8.5,,74.6,-322,-36,21,1017.79,74.3,0
"2018-08-27 09:27:07+00",7.7,9.7,,74.5,-326,-22,29,1017.78,74.3,0
"2018-08-27 09:32:07+00",7.4,8.4,,74.3,-322,16,10,1017.81,74.1,0
"2018-08-27 09:37:07+00",8.8,9.8,,74.3,-369,-60,5,1017.85,74,0
"2018-08-27 09:42:07+00",7.4,9.4,,74.1,-307,-99,19,1017.82,73.9,0
"2018-08-27 09:47:07+00",7.1,8.1,,74,-299,-29,10,1017.9,73.8,0
"2018-08-27 09:52:07+00",8.4,9.4,,74,-349,-81,4,1017.85,73.8,0
"2018-08-27 09:57:07+00",7.1,8.1,,73.9,-296,-101,14,1017.91,73.6,0
"2018-08-27 10:02:07+00",6.6,7.6,,73.9,-271,-86,5,1017.88,73.6,0
"2018-08-27 10:07:07+00",5.7,6.7,,73.8,-231,-95,7,1017.87,73.5,0
"2018-08-27 10:12:07+00",6.7,7.7,,73.9,-288,-117,18,1017.9,73.5,0
"2018-08-27 10:17:07+00",7.0,8.0,,74,-294,-97,8,1017.89,73.5,0
"2018-08-27 10:22:07+00",5.5,6.5,,74,-235,15,14,1018.01,73.5,0
"2018-08-27 10:27:07+00",6.2,6.2,,74,-270,24,17,1018.11,73.5,0
"2018-08-27 10:32:07+00",6.8,7.8,,73.9,-290,-18,8,1018.1,73.5,0
"2018-08-27 10:37:07+00",6.6,6.6,,73.9,-283,-15,17,1018.12,73.5,0
"2018-08-27 10:42:07+00",7.8,8.8,,73.9,-338,-38,12,1018.22,73.6,0
"2018-08-27 10:47:07+00",7.5,8.5,,73.9,-326,-3,10,1018.31,73.6,0
"2018-08-27 10:52:07+00",7.0,8.0,,73.9,-302,11,10,1018.37,73.7,0
"2018-08-27 10:57:07+00",7.5,8.5,,73.9,-324,-23,11,1018.34,73.8,0
"2018-08-27 11:02:07+00",7.2,8.2,,74,-294,-68,22,1018.4,73.9,1.3
"2018-08-27 11:07:07+00",7.0,8.0,,74,-284,-80,23,1018.4,74.1,5.8
"2018-08-27 11:12:07+00",7.9,8.9,,74,-322,-83,15,1018.41,74.3,12
"2018-08-27 11:17:07+00",9.4,10.4,,74.1,-392,-69,13,1018.54,74.4,14.8
"2018-08-27 11:22:07+00",7.2,8.2,,74.1,-304,-25,35,1018.52,74.7,10.6
"2018-08-27 11:27:07+00",7.5,8.5,,74.2,-306,-55,17,1018.65,74.9,31.9
"2018-08-27 11:32:07+00",6.7,7.7,,74.1,-280,-50,28,1018.6,75.2,39.5
"2018-08-27 11:37:07+00",6.5,7.5,,74.1,-274,-59,22,1018.53,75.4,35.3
"2018-08-27 11:42:07+00",6.2,7.2,,74.1,-261,-34,18,1018.63,75.6,40.5
"2018-08-27 11:47:07+00",7.3,8.3,,74.1,-305,-107,2,1018.7,75.7,60.3
"2018-08-27 11:52:07+00",6.8,7.8,,74,-283,-41,11,1018.78,76,73.7
"2018-08-27 11:57:07+00",7.0,7.0,,74.1,-288,-77,18,1018.7,76.3,81.2
"2018-08-27 12:02:07+00",6.1,7.1,,74.1,-251,-39,11,1018.66,76.7,93.8
"2018-08-27 12:07:07+00",5.3,6.3,,74.3,-226,-15,20,1018.76,77.2,91.5
"2018-08-27 12:12:07+00",6.7,7.7,,74.3,-293,79,27,1018.78,77.5,107.5
"2018-08-27 12:17:07+00",7.7,8.7,,74.4,-336,40,14,1018.76,77.8,105.5
"2018-08-27 12:22:07+00",6.4,7.4,,74.5,-279,5,9,1018.83,77.8,113
"2018-08-27 12:27:07+00",7.2,8.2,,74.5,-307,-21,15,1018.82,77.9,113
"2018-08-27 12:32:07+00",6.9,7.9,,74.8,-295,70,49,1018.93,78,133.9
"2018-08-27 12:37:07+00",6.7,7.7,,74.9,-295,34,40,1018.93,78.3,133.2
"2018-08-27 12:42:07+00",7.0,8.0,,74.9,-285,106,28,1019.08,78.4,156
"2018-08-27 12:47:07+00",6.8,7.8,,75.1,-281,89,34,1019.09,78.5,135.1
"2018-08-27 12:52:07+00",6.1,7.1,,75.3,-256,51,9,1019.11,78.8,174.4
"2018-08-27 12:57:07+00",7.1,9.1,,75.5,-302,71,23,1019.02,79.1,171
"2018-08-27 13:02:07+00",8.0,9.0,,75.5,-351,60,25,1019.09,79.2,175
"2018-08-27 13:07:07+00",6.7,7.7,,75.7,-267,109,24,1019.19,79.5,159.8
"2018-08-27 13:12:07+00",6.2,6.2,,75.8,-264,81,23,1019.24,79.7,218.9
"2018-08-27 13:17:07+00",6.7,7.7,,76.1,-255,134,41,1019.25,80.1,217.6
"2018-08-27 13:22:07+00",7.3,9.3,,76.3,-312,100,33,1019.29,80.3,211
"2018-08-27 13:27:07+00",7.7,8.7,,76.4,-321,111,6,1019.36,80.4,234.7
"2018-08-27 13:32:07+00",7.9,8.9,,76.5,-341,97,24,1019.34,80.7,243.4
"2018-08-27 13:37:07+00",7.0,8.0,,76.6,-303,74,34,1019.42,81,260.2
"2018-08-27 13:42:07+00",7.1,8.1,,76.7,-301,79,15,1019.38,81.4,249.1
"2018-08-27 13:47:07+00",6.2,6.2,,76.8,-258,86,21,1019.35,81.6,181.8
"2018-08-27 13:52:07+00",5.6,6.6,,76.9,-229,44,-15,1019.28,82,286
"2018-08-27 13:57:07+00",5.6,6.6,,77.1,-230,66,-19,1019.44,82.6,255.3
"2018-08-27 14:02:07+00",5.5,6.5,,77.5,-226,62,-18,1019.46,83.2,275.7
"2018-08-27 14:07:07+00",4.5,5.5,,77.7,-190,20,-12,1019.46,83.9,257.6
"2018-08-27 14:12:07+00",4.1,5.1,,77.9,-167,-18,-5,1019.4,84.6,315.5
"2018-08-27 14:17:07+00",2.8,3.8,,78.3,-91,-30,24,1019.47,85.1,326.8
"2018-08-27 14:22:07+00",3.1,5.1,,78.8,-124,-66,-3,1019.38,85.5,314.6
"2018-08-27 14:27:07+00",4.1,5.1,,79.1,-154,-59,-16,1019.43,85.7,324.5
"2018-08-27 14:32:07+00",4.7,5.7,,79.5,-158,-98,-16,1019.47,85.9,307.2
"2018-08-27 14:37:07+00",2.7,4.7,,79.7,-110,18,3,1019.49,86.4,344.4
"2018-08-27 14:42:07+00",3.8,4.8,,80,-160,58,5,1019.56,86.6,327.2
"2018-08-27 14:47:07+00",2.2,3.2,,80.2,-91,14,3,1019.5,86.9,322.1
"2018-08-27 14:52:07+00",0.6,0.6,,80.5,8,-7,-21,1019.48,87.2,363.9
"2018-08-27 14:57:07+00",2.0,3.0,,80.8,-64,-61,-14,1019.47,87.4,357.8
"2018-08-27 15:02:07+00",1.0,2.0,,81,-52,-36,-19,1019.51,87.4,385.1
"2018-08-27 15:07:07+00",0.7,1.7,,81.4,-30,35,-13,1019.63,87.5,391.8
"2018-08-27 15:12:07+00",3.1,5.1,,81.7,-118,-101,8,1019.75,87.9,380.9
"2018-08-27 15:17:07+00",4.1,6.1,,81.5,-176,-21,-4,1019.83,87.8,395.1
"2018-08-27 15:22:07+00",1.1,2.1,,81.7,-56,17,14,1019.82,88.5,399.7
"2018-08-27 15:27:07+00",5.3,6.3,,81.7,-210,-122,-52,1019.85,88.7,409.1
"2018-08-27 15:32:07+00",4.4,5.4,,81.9,-77,-191,-19,1019.74,87.2,410.1
"2018-08-27 15:37:07+00",4.4,5.4,,81.8,-102,-184,-49,1019.78,86.6,422.8
"2018-08-27 15:42:07+00",5.7,6.7,,82.2,-25,-256,-45,1019.76,85.7,382.1
"2018-08-27 15:47:07+00",4.6,5.6,,82.4,-18,-211,-25,1019.75,85.2,358.6
"2018-08-27 15:52:07+00",7.4,9.4,,82.2,34,-338,-66,1019.79,84.8,423.5
"2018-08-27 15:57:07+00",5.8,8.8,,82.4,73,-252,-30,1019.77,84.7,427.1
"2018-08-27 16:02:07+00",7.6,8.6,,81.1,176,-303,-66,1019.78,84,430.6
"2018-08-27 16:07:07+00",8.3,9.3,,80.5,141,-350,-54,1019.72,83.3,431.5
"2018-08-27 16:12:07+00",7.6,8.6,,80.5,168,-306,-23,1019.73,83.3,431
"2018-08-27 16:17:07+00",8.4,9.4,,81,154,-342,-18,1019.7,83.8,432.5
"2018-08-27 16:22:07+00",8.6,9.6,,80.8,150,-337,-43,1019.65,83.6,431.8
"2018-08-27 16:27:07+00",10.1,12.1,,80.7,205,-365,-44,1019.59,83.8,432.3
"2018-08-27 16:32:07+00",10.9,12.9,,80.3,109,-453,-57,1019.61,83.4,430.1
"2018-08-27 16:37:07+00",11.1,12.1,,80,198,-432,-58,1019.68,82.9,430.4
"2018-08-27 16:42:07+00",9.7,11.7,,80.1,114,-410,-14,1019.59,82.8,431.3
"2018-08-27 16:47:07+00",10.2,12.2,,80.3,146,-407,-25,1019.49,83,407.6
"2018-08-27 16:52:07+00",10.5,12.5,,80.3,200,-403,-58,1019.31,82.8,440.9
"2018-08-27 16:57:07+00",10.6,13.6,,80.1,143,-417,-27,1019.39,82.8,438.3
"2018-08-27 17:02:07+00",12.1,13.1,,79.9,159,-494,-70,1019.27,82.4,439.2
"2018-08-27 17:07:07+00",11.1,13.1,,79.8,82,-473,-42,1019.16,82.4,442
"2018-08-27 17:12:07+00",10.6,12.6,,80.3,121,-426,-35,1019.09,82.8,437.4
"2018-08-27 17:17:07+00",12.2,14.2,,80.1,190,-498,-57,1019.01,82.6,403.6
"2018-08-27 17:22:07+00",10.1,12.1,,80.1,120,-400,-29,1019.08,82.6,440.1
"2018-08-27 17:27:07+00",11.9,13.9,,80,130,-496,-76,1019.08,82.5,439.6
"2018-08-27 17:32:07+00",12.2,13.2,,80,145,-512,-70,1019.15,82.4,435.8
"2018-08-27 17:37:07+00",9.7,11.7,,80.3,49,-406,-4,1019.21,82.5,435.1
"2018-08-27 17:42:07+00",10.7,13.7,,80.3,40,-449,-10,1019.19,82.6,432.9
"2018-08-27 17:47:07+00",10.4,14.4,,80.3,41,-447,-17,1019.16,82.4,421.3
"2018-08-27 17:52:07+00",10.8,13.8,,80.6,78,-445,2,1019.12,82.6,400.7
"2018-08-27 17:57:07+00",11.7,15.7,,80.7,108,-513,-28,1019.09,82.8,423.2
"2018-08-27 18:02:07+00",12.3,15.3,,80.6,100,-511,-12,1018.96,82.8,412
"2018-08-27 18:07:07+00",10.3,13.3,,80.8,53,-438,-7,1018.87,82.9,396.8
"2018-08-27 18:12:07+00",11.1,13.1,,81,84,-466,-25,1018.85,83,412.3
"2018-08-27 18:17:07+00",10.3,12.3,,81.5,102,-420,28,1018.74,83.2,393.7
"2018-08-27 18:22:07+00",12.4,14.4,,81.3,100,-516,-27,1018.62,83.4,378.6
"2018-08-27 18:27:07+00",12.0,15.0,,80.8,86,-506,-15,1018.57,83,348.2
"2018-08-27 18:32:07+00",13.0,15.0,,80.9,149,-550,-17,1018.57,82.8,364
"2018-08-27 18:37:07+00",13.8,15.8,,80.6,110,-581,-35,1018.54,82.6,390.9
"2018-08-27 18:42:07+00",13.6,16.6,,80.1,107,-576,-18,1018.45,82.3,395.8
"2018-08-27 18:47:07+00",12.3,14.3,,80.6,119,-498,-57,1018.47,82.5,391.1
"2018-08-27 18:52:07+00",13.9,15.9,,80.6,46,-604,-34,1018.39,82.2,382.2
"2018-08-27 18:57:07+00",11.6,15.6,,81.1,70,-485,2,1018.44,82.8,378.2
"2018-08-27 19:02:07+00",13.7,15.7,,81.1,74,-580,-24,1018.37,82.8,368.9
"2018-08-27 19:07:07+00",8.8,11.8,,81.5,8,-366,27,1018.29,83.1,360.4
"2018-08-27 19:12:07+00",14.3,17.3,,81.1,77,-603,-27,1018.27,82.6,350.6
"2018-08-27 19:17:07+00",15.0,17.0,,80.6,50,-635,-36,1018.33,82.2,349.1
"2018-08-27 19:22:07+00",13.1,16.1,,80.9,70,-551,-30,1018.32,82.6,341.9
"2018-08-27 19:27:07+00",8.9,12.9,,81.4,14,-381,17,1018.31,82.8,330.9
"2018-08-27 19:32:07+00",9.5,12.5,,81.1,8,-390,12,1018.23,82.7,322.5
"2018-08-27 19:37:07+00",11.6,14.6,,81.5,23,-492,-15,1018.17,82.9,319.5
"2018-08-27 19:42:07+00",10.2,12.2,,81.4,28,-439,-12,1018.2,82.9,309
"2018-08-27 19:47:07+00",11.8,14.8,,81.2,35,-492,-27,1018.06,82.9,299.8
"2018-08-27 19:52:07+00",11.8,15.8,,81.2,49,-503,-29,1018.02,82.8,295.8
"2018-08-27 19:57:07+00",13.1,16.1,,81.3,58,-563,-24,1018.01,82.9,285.8
"2018-08-27 20:02:07+00",9.9,13.9,,81.7,-43,-406,6,1018.06,82.9,276.8
"2018-08-27 20:07:07+00",7.9,9.9,,82.6,-66,-330,23,1017.94,83.8,268.7
"2018-08-27 20:12:07+00",9.3,14.3,,83,-94,-380,42,1017.94,84.2,259.2
"2018-08-27 20:17:07+00",11.4,14.4,,83.1,-136,-458,2,1017.84,84.6,251
"2018-08-27 20:22:07+00",12.9,15.9,,82.6,-118,-538,-16,1017.87,84.1,240.1
"2018-08-27 20:27:07+00",11.5,17.5,,82.8,-158,-470,-8,1018,84.4,232.5
"2018-08-27 20:32:07+00",10.8,13.8,,82.9,-100,-450,-5,1017.94,84.5,224.9
"2018-08-27 20:37:07+00",11.4,13.4,,82.8,-73,-473,-13,1017.94,84.2,219
"2018-08-27 20:42:07+00",8.6,13.6,,82.4,-41,-341,11,1017.92,83.7,212.6
"2018-08-27 20:47:07+00",9.9,13.9,,82.5,-104,-416,16,1017.91,83.8,204
"2018-08-27 20:52:07+00",12.2,15.2,,82.4,-155,-509,7,1017.93,83.8,197.3
"2018-08-27 20:57:07+00",12.2,16.2,,82.4,-122,-497,-21,1017.87,83.6,189.4
"2018-08-27 21:02:07+00",10.1,13.1,,82.8,-132,-415,19,1017.83,83.9,173.2
"2018-08-27 21:07:07+00",8.8,13.8,,82.8,-82,-367,17,1017.85,83.9,175.7
"2018-08-27 21:12:07+00",8.6,12.6,,82.6,-79,-355,20,1017.94,83.8,169
"2018-08-27 21:17:07+00",9.7,13.7,,82.4,-84,-405,-6,1017.86,83.5,162.9
"2018-08-27 21:22:07+00",9.3,11.3,,82.4,-82,-378,25,1018.03,83.5,137.5
"2018-08-27 21:27:07+00",10.0,13.0,,82.3,-104,-406,6,1018.01,83.4,127.7
"2018-08-27 21:32:07+00",10.7,13.7,,82.1,-110,-441,-5,1017.99,83.2,134.6
"2018-08-27 21:37:07+00",10.9,13.9,,81.9,-103,-460,-19,1017.96,83,116.5
"2018-08-27 21:42:07+00",11.8,13.8,,81.9,-110,-493,-2,1017.93,82.8,111
"2018-08-27 21:47:07+00",11.2,13.2,,81.8,-166,-455,-7,1017.83,82.7,103.8
"2018-08-27 21:52:07+00",11.6,12.6,,82,-175,-466,-25,1017.85,82.9,91.3
"2018-08-27 21:57:07+00",10.8,14.8,,82.2,-167,-426,-9,1017.81,82.9,70.4
"2018-08-27 22:02:07+00",12.2,14.2,,82.1,-197,-478,-19,1017.83,82.8,68.3
"2018-08-27 22:07:07+00",8.1,12.1,,82.3,-118,-325,6,1017.8,83,66.1
"2018-08-27 22:12:07+00",11.2,12.2,,82.1,-189,-440,-18,1017.71,82.8,57.4
"2018-08-27 22:17:07+00",12.3,14.3,,81.9,-238,-480,-19,1017.66,82.7,51.2
"2018-08-27 22:22:07+00",9.3,11.3,,81.8,-144,-380,16,1017.72,82.5,43.3
"2018-08-27 22:27:07+00",9.6,12.6,,81.5,-136,-387,-8,1017.67,82.3,32.5
"2018-08-27 22:32:07+00",10.7,12.7,,81.4,-181,-419,-14,1017.65,82.1,30.4
"2018-08-27 22:37:07+00",11.0,13.0,,81.2,-198,-435,-3,1017.64,81.9,22.2
"2018-08-27 22:42:07+00",9.9,12.9,,81.1,-195,-390,1,1017.5,81.7,15.4
"2018-08-27 22:47:07+00",11.3,12.3,,80.9,-191,-445,-9,1017.5,81.4,10.4
"2018-08-27 22:52:07+00",9.3,11.3,,80.8,-126,-389,1,1017.51,81.2,4.5
"2018-08-27 22:57:07+00",10.0,13.0,,80.7,-157,-403,-10,1017.52,81,1.4
"2018-08-27 23:02:07+00",8.7,10.7,,80.5,-105,-357,-7,1017.47,80.8,0
"2018-08-27 23:07:07+00",9.2,11.2,,80.4,-120,-379,-3,1017.43,80.6,0
"2018-08-27 23:12:07+00",10.0,12.0,,80.2,-166,-396,-4,1017.48,80.4,0
"2018-08-27 23:17:07+00",10.4,12.4,,80.1,-172,-412,0,1017.46,80.2,0
"2018-08-27 23:22:07+00",9.4,10.4,,79.9,-147,-374,-16,1017.44,80,0
"2018-08-27 23:27:07+00",8.2,11.2,,79.9,-229,-310,-37,1017.63,79.8,0
"2018-08-27 23:32:07+00",9.1,11.1,,79.9,-224,-333,-51,1017.6,79.7,0
"2018-08-27 23:37:07+00",7.4,10.4,,79.8,-167,-264,-52,1017.65,79.6,0
"2018-08-27 23:42:07+00",7.3,9.3,,79.7,-143,-270,-53,1017.68,79.4,0
"2018-08-27 23:47:07+00",9.6,11.6,,79.6,-260,-364,-58,1017.68,79.3,0
"2018-08-27 23:52:07+00",8.1,9.1,,79.6,-300,-290,-69,1017.82,79.3,0
"2018-08-27 23:57:07+00",7.3,8.3,,79.6,-258,-267,-51,1017.81,79.3,0
